Location: Jackson Park
(37.2862°N, 79.9123°W)
Time: 21:01:23
(UTC+00:00)

Envisat - Visible Passes

Search period start: 10 April 2026 00:00
Search period end: 20 April 2026 00:00
Orbit: 761 x 762 km, 98.4° (Epoch: 10 April)

Date Brightness Start Highest point End Pass type
(mag) Time Alt. Az. Time Alt. Az. Time Alt. Az.
10 Apr 3.8 07:55:36 10° NNE 07:59:08 46° NNE 07:59:08 46° NNE visible
10 Apr 5.0 09:37:40 10° NW 09:38:51 11° WNW 09:39:16 11° WNW visible
11 Apr 4.8 07:18:11 10° NNE 07:20:59 27° ENE 07:20:59 27° ENE visible
11 Apr 4.3 08:57:28 10° NNW 09:01:07 24° WNW 09:01:07 24° WNW visible
12 Apr 5.7 06:41:57 10° ENE 06:42:50 12° ENE 06:42:50 12° ENE visible
12 Apr 3.5 08:19:00 10° N 08:22:58 48° NNW 08:22:58 48° NNW visible
13 Apr 4.0 07:41:11 10° NNE 07:44:49 44° NE 07:44:49 44° NE visible
13 Apr 4.7 09:21:46 10° NNW 09:24:34 15° WNW 09:24:57 15° WNW visible
14 Apr 5.1 07:04:04 10° NE 07:06:39 22° ENE 07:06:39 22° ENE visible
14 Apr 3.8 08:42:37 10° N 08:46:48 33° WNW 08:46:48 33° WNW visible
15 Apr 3.3 08:04:25 10° N 08:08:38 61° N 08:08:38 61° N visible
16 Apr 4.3 07:26:50 10° NNE 07:30:29 37° ENE 07:30:29 37° ENE visible
16 Apr 4.4 09:06:35 10° NNW 09:10:14 20° WNW 09:10:37 20° WNW visible
17 Apr 5.4 06:50:11 10° NE 06:52:19 17° ENE 06:52:19 17° ENE visible
17 Apr 3.4 08:27:54 10° N 08:32:27 45° WNW 08:32:27 45° WNW visible
18 Apr 3.3 07:49:56 10° NNE 07:54:18 63° NE 07:54:18 63° NE visible
18 Apr 4.9 09:31:16 10° NW 09:33:15 12° WNW 09:34:26 11° WNW visible
19 Apr 4.6 07:12:37 10° NE 07:16:08 29° ENE 07:16:08 29° ENE visible
19 Apr 4.0 08:51:38 10° NNW 08:55:53 28° WNW 08:56:16 27° WNW visible
